Flag for Canada Weather past 2 weeks in Halifax, Nova Scotia, Canada

Now
66 °F

Passing clouds.


Feels Like: 66 °F
Forecast: 62 / 81 °F
Wind: 7 mph from Northwest

Location: Halifax International Airport

Current Time: Aug 28, 2015 at 9:39:50 PM

Latest Report: Aug 28, 2015 at 9:00 PM


Visibility: 15 mi

Pressure: 30.06 "Hg

Humidity: 68%

Dew point: 55 °F

Location of HalifaxLocation

Historic Weather in Halifax — Graph

°F

Halifax temperature yesterday

Maximum temperature yesterday: 72 °F (at 5:00 PM)
Minimum temperature yesterday: 63 °F (at 12:00 AM)
Average temperature yesterday: 67 °F

Past Weeks' High & Low Weather Summary

 TemperatureHumidityPressure
High84 °F (Aug 17, 2:00 PM)100% (Aug 14, 2:00 AM)30.26 "Hg (Aug 14, 2:00 AM)
Low59 °F (Aug 15, 4:00 AM)43% (Aug 17, 4:00 PM)29.83 "Hg (Aug 27, 6:00 PM)
Average70 °F84%30.06 "Hg
* Reported Aug 13 8:00 PM — Aug 28 8:00 PM, Halifax, Weather by CustomWeather, © 2015

Note: Actual official high and low records may vary slightly from our data, if they occured in-between our weather recording intervals... More about our weather records

Advertising

Halifax weather history for previous 24 hours

 ConditionsComfort  
Time TempWeatherWind HumidityBarometerVisibility
8:00 PM
Fri, Aug 28
68 °FPassing clouds.7 mph64%30.04 "Hg15 mi
7:00 PM72 °FPassing clouds.9 mph53%30.02 "Hg15 mi
6:00 PM73 °FPassing clouds.12 mph47%30.01 "Hg15 mi
5:00 PM75 °FPassing clouds.14 mph47%30.00 "Hg15 mi
4:00 PM75 °FPassing clouds.15 mph44%30.00 "Hg15 mi
3:00 PM75 °FPassing clouds.13 mph50%30.01 "Hg15 mi
2:00 PM73 °FPassing clouds.15 mph53%30.00 "Hg15 mi
1:00 PM72 °FPassing clouds.13 mph61%30.00 "Hg15 mi
12:00 PM70 °FPassing clouds.14 mph64%30.01 "Hg15 mi
11:00 AM68 °FPassing clouds.12 mph69%30.01 "Hg15 mi
10:00 AM66 °FPassing clouds.10 mph78%30.00 "Hg15 mi
9:00 AM63 °FPassing clouds.9 mph83%29.99 "Hg15 mi
8:00 AM61 °FPassing clouds.10 mph88%29.98 "Hg15 mi
7:00 AM59 °FPassing clouds.12 mph94%29.96 "Hg15 mi
6:00 AM59 °FPassing clouds.10 mph88%29.95 "Hg15 mi
5:00 AM59 °FClear.7 mph88%29.93 "Hg15 mi
4:00 AM59 °FPassing clouds.8 mph94%29.92 "Hg15 mi
3:00 AM61 °FPassing clouds.6 mph88%29.91 "Hg15 mi
2:00 AM63 °FPassing clouds.9 mph83%29.90 "Hg15 mi
1:00 AM63 °FClear.13 mph88%29.90 "Hg15 mi
12:00 AM64 °FClear.13 mph83%29.89 "Hg15 mi
11:00 PM
Thu, Aug 27
66 °FClear.10 mph83%29.89 "Hg15 mi
10:00 PM68 °FPassing clouds.10 mph88%29.88 "Hg15 mi
9:00 PM68 °FSprinkles. Passing clouds.8 mph88%29.86 "Hg11 mi
Weather by CustomWeather, © 2015

See weather overviewHow to use our weather pages